Location: *
(13.0000°S, 28.4000°W)
Time: 05:19:54
(UTC+00:00)

Daily predictions for brighter satellites

Satellite Brightness Start Highest point End
(mag) Time Altitude Azimuth Time Altitude Azimuth Time Altitude Azimuth
COSMOS 2428 4.2 05:29:28 33° ENE 05:29:28 33° ENE 05:33:08 10° NE
ATLAS 5 CENTAUR R/B 4.3 05:34:59 15° E 05:34:59 15° E 05:36:00 10° ENE
Lacrosse 5 rocket 4.1 05:37:59 17° ENE 05:37:59 17° ENE 05:39:08 10° NE
Meteor 2-3 Rocket 3.9 05:57:32 68° NE 05:57:32 68° NE 06:02:36 10° N
Cosmos 2333 Rocket 2.9 06:02:14 43° N 06:02:14 43° N 06:05:58 10° N
Atlas Centaur 2 3.4 06:05:11 26° SE 06:05:11 26° SE 06:08:10 10° ESE
NOSS 3-3 (A) 4.0 06:06:06 57° SSE 06:06:51 63° ESE 06:12:20 10° NE
NOSS 3-3 (C) 4.0 06:06:07 55° SSE 06:06:56 62° ESE 06:12:25 10° NE
CZ-4B R/B 4.2 06:15:40 12° NNE 06:15:40 12° NNE 06:15:56 10° NNE
STARLINK-1027 4.5 06:28:10 39° NNW 06:28:10 39° NNW 06:31:08 10° NNE
Cosmos 1340 3.6 06:30:52 39° N 06:30:52 39° N 06:33:19 10° N
Cosmos 1818 3.7 06:30:45 51° WNW 06:30:50 51° WNW 06:36:02 10° N
STARLINK-1060 4.5 06:32:57 37° NNW 06:32:57 37° NNW 06:36:00 10° NNE
Okean O Rocket 4.3 06:31:15 10° ENE 06:34:08 18° ESE 06:37:02 10° SSE
Cosmos 1484 Rocket 4.2 06:32:00 10° N 06:34:04 27° NNW 06:34:04 27° NNW
Iridium 4 Rocket 2.9 06:35:51 36° S 06:37:30 89° W 06:41:48 10° N
FENGYUN 3A 3.6 06:32:29 10° N 06:37:51 64° WNW 06:40:18 33° SSW
ATLAS 2A CENTAUR R/B 3.9 06:37:30 27° WNW 06:38:27 28° NW 06:41:44 10° NNE
OAO 3 Rocket 4.3 06:37:21 27° S 06:38:44 32° SSE 06:42:56 10° E
Hubble Space Telescope 2.7 06:41:05 18° S 06:41:05 18° S 06:42:59 10° SSE
Cosmos 2219 Rocket 3.2 06:41:31 27° WNW 06:41:31 27° WNW 06:45:19 10° NNW
Chandra Rocket (1) 3.2 06:26:07 10° WNW 06:41:15 71° SSW 06:45:35 10° SE
Cosmos 1680 Rocket 3.4 06:40:03 41° SW 06:41:40 61° WNW 06:46:48 10° N
METEOR-M 4.1 06:36:49 10° N 06:42:05 64° WNW 06:45:02 27° SSW
STARLINK-1212 4.2 06:44:27 31° SSE 06:44:27 31° SSE 06:46:14 10° SSE
Cosmos 1689 Rocket 3.5 06:40:42 10° SSE 06:43:27 37° E 06:46:11 10° N
STARLINK-1105 4.2 06:44:54 31° SSE 06:44:54 31° SSE 06:46:42 10° SSE
GPS 2-04 Rocket1 4.1 06:40:30 12° NNW 06:44:05 39° NE 06:47:59 10° ESE
STARLINK-1247 4.1 06:45:45 32° SSE 06:45:45 32° SSE 06:47:36 10° SSE
Cosmos 923 Rocket 4.4 06:44:19 38° W 06:44:35 38° W 06:49:22 10° NNW
Aurora 2 Rocket 3.8 06:44:53 17° NNW 06:44:53 17° NNW 06:46:54 10° NNE
PSLV R/B 3.9 06:40:55 10° NNE 06:44:44 74° ESE 06:47:21 20° S
STARLINK-1227 4.1 06:46:12 32° SSE 06:46:12 32° SSE 06:48:02 10° SSE
Cosmos 1500 Rocket 3.6 06:45:14 48° WSW 06:45:45 51° W 06:50:00 10° NNW
STARLINK-1226 4.0 06:47:02 33° SSE 06:47:02 33° SSE 06:48:57 10° SSE
Cosmos 1862 4.3 06:42:29 10° S 06:46:26 48° E 06:50:20 10° NNE
STARLINK-1215 4.0 06:47:56 33° SSE 06:47:56 33° SSE 06:49:51 10° SSE
SJ-12 3.9 06:43:11 10° N 06:47:16 61° W 06:48:34 40° SW
STARLINK-1217 3.9 06:49:38 34° S 06:49:38 34° S 06:51:37 10° SSE
STARLINK-1229 3.9 06:50:29 34° S 06:50:29 34° S 06:52:30 10° SSE
STARLINK-1270 3.8 06:51:21 34° S 06:51:21 34° S 06:53:23 10° SSE
Cosmos 2150 Rocket 4.4 06:45:48 10° NW 06:50:30 36° WSW 06:55:16 10° S
STARLINK-1189 3.8 06:53:07 34° S 06:53:07 34° S 06:55:12 10° SSE
STARLINK-1188 3.8 06:53:58 35° S 06:53:58 35° S 06:56:05 10° SSE
Meteor PRIRODA 4.1 06:50:14 10° N 06:53:27 38° WNW 06:53:27 38° WNW
CZ-4B R/B 4.3 06:51:45 10° NNW 06:53:18 19° NW 06:53:18 19° NW
Centaur D-1AR AC-48 4.2 05:43:28 10° W 06:55:02 56° SSW 07:01:13 10° ESE
STARLINK-1191 3.7 06:56:18 34° S 06:56:18 34° S 06:58:28 10° SSE
Cosmos 1980 3.6 06:51:30 18° SSW 06:55:49 72° WNW 07:01:27 10° N
Cosmos 1805 Rocket 3.6 06:51:47 10° S 06:56:17 81° E 07:00:43 10° N
STARLINK-1221 3.7 06:57:08 34° SSW 06:57:08 34° SSW 06:59:21 10° SSE
STARLINK-1222 3.7 06:58:02 33° SSW 06:58:02 33° SSW 07:00:15 10° SSE
Cosmos 1328 Rocket 3.7 06:53:24 10° N 06:57:43 75° E 07:02:04 10° S
STARLINK-1214 3.7 06:58:55 33° SSW 06:58:55 33° SSW 07:01:08 10° SSE
Cosmos 1606 2.6 06:56:11 10° N 06:59:58 89° W 07:03:49 10° S
MOS 1-B 4.3 06:56:55 10° N 07:02:43 83° WNW 07:08:34 10° SSW
Intelsat 5-3 Rocket 3.5 07:01:38 24° WSW 07:03:51 33° SSW 07:07:00 10° SE
NOSS 0 Rocket 4.3 07:01:26 20° SW 07:05:14 42° WNW 07:10:59 10° N
GPS 2-12 Rocket1 4.5 07:01:15 10° NW 07:05:36 36° NNE 07:10:02 10° E
H-2A R/B 3.4 07:01:58 10° NNW 07:05:56 32° W 07:07:56 22° WSW
STARLINK-1046 4.3 07:05:18 14° SSW 07:08:39 52° SE 07:12:41 10° NE
ALOS 3.4 07:05:22 10° NNW 07:09:04 23° W 07:10:15 21° WSW
GPS 2-18 Rocket1 4.2 07:08:11 23° SW 07:09:19 27° S 07:12:31 10° SE
COSMOS 2428 4.3 07:11:32 15° W 07:11:40 15° WNW 07:14:39 10° NW
STARLINK-1211 4.2 07:08:18 10° NNW 07:12:22 59° NE 07:16:28 10° SE
STARLINK-1039 4.0 07:10:05 14° SSW 07:13:37 61° SE 07:17:42 10° NE
Lacrosse 5 rocket 3.5 07:13:40 12° WNW 07:13:53 12° WNW 07:15:30 10° NW
CZ-4B DEB 4.3 07:11:37 10° N 07:17:00 59° WNW 07:22:25 10° SSW
TIMED 4.4 07:12:40 10° SSW 07:17:04 84° WNW 07:21:24 10° N
ATLAS 5 CENTAUR R/B 3.1 07:16:34 15° W 07:17:06 15° WNW 07:19:29 10° NW
STARLINK-1245 3.9 07:13:13 10° NNW 07:17:19 69° NE 07:21:28 10° SE
STARLINK-1045 3.8 07:14:53 13° SSW 07:18:37 71° SE 07:22:44 10° NE
Maqsat-H 4.4 06:52:07 10° WNW 07:19:30 46° N 07:24:58 10° ENE
STARLINK-1233 3.7 07:18:10 10° NNW 07:22:17 80° NE 07:26:28 10° SE
ADEOS Rocket 4.2 07:15:59 10° SSE 07:22:23 48° E 07:28:06 10° N
Cosmos 2263 Rocket 2.3 07:17:22 10° NNW 07:22:45 52° WSW 07:28:10 10° S
STARLINK-1050 3.6 07:19:40 12° SSW 07:23:35 83° ESE 07:27:43 10° NE
Cosmos 2237 Rocket 2.7 07:18:42 11° SW 07:23:45 38° WNW 07:28:55 10° N
PAYLOAD B 4.3 07:18:53 10° N 07:24:23 61° WNW 07:29:54 10° SSW
CZ-3B R/B 2.1 07:24:41 12° SSW 07:25:25 14° S 07:26:21 10° SE
Delta 168 3.3 07:22:52 16° WSW 07:26:20 84° SSE 07:32:38 10° ENE
STARLINK-1204 3.6 07:23:08 10° NW 07:27:16 88° WSW 07:31:27 10° SE
Centaur AC-146 2.7 07:25:53 15° SW 07:27:30 29° SSE 07:31:45 10° ESE
STARLINK-1055 3.6 07:24:27 10° SW 07:28:32 85° WNW 07:32:40 10° NNE
ASTRO E2 4.4 07:25:29 10° NNW 07:29:08 34° NNE 07:32:48 10° E
STARLINK-1238 3.5 07:28:07 10° NW 07:32:14 76° SW 07:36:24 10° SSE
Envisat 3.8 07:27:35 10° NNE 07:32:31 54° ESE 07:37:30 10° S
STARLINK-1022 3.6 07:29:22 10° SW 07:33:31 73° NW 07:37:37 10° NNE
Iridium 96 3.1 07:34:20 10° N 07:35:58 61° E 07:37:37 10° S
Helios 1A Rocket 4.3 07:33:15 10° NNE 07:37:08 42° ESE 07:41:01 10° S
STARLINK-1201 3.6 07:33:08 10° NW 07:37:13 64° SW 07:41:22 10° SSE
Meteor 1-26 Rocket 4.4 07:31:50 10° N 07:37:47 76° W 07:43:49 10° S
STARLINK-1042 3.7 07:34:20 10° SW 07:38:28 62° NW 07:42:32 10° NNE
SL-16 R/B 2.4 07:33:50 10° SSW 07:39:31 81° ESE 07:45:09 10° NNE
Cosmos 1515 Rocket 3.7 07:37:38 10° NNW 07:41:48 48° W 07:46:01 10° S
STARLINK-1206 3.7 07:38:08 10° NW 07:42:11 55° SW 07:46:17 10° SSE
STARLINK-1056 3.9 07:39:23 10° SW 07:43:27 53° NW 07:47:28 10° NNE
Sich 1 3.8 07:39:33 10° SSW 07:43:29 31° W 07:47:22 10° NNW
GPS 2-15 Rocket1 3.3 07:38:48 10° WSW 07:43:42 80° NNW 07:48:39 10° ENE
Cosmos 2123 Rocket 4.5 07:38:47 10° N 07:44:57 69° E 07:51:09 10° S
STARLINK-1205 3.9 07:43:11 10° NW 07:47:11 48° SW 07:51:13 10° SSE
STARLINK-1054 4.1 07:44:25 10° SW 07:48:24 46° WNW 07:52:21 10° NNE
